Delta Virtual Airport Information Service

Paris Orly Airport

ICAO: LFPO Country: France
Latitude: 48.7233 Longitude: 2.37944
Latest Arrival : AFR695981 (LFMN-LFPO) Latest Departure : AFR644 (LFPO-FMEE)


WX CaptureLIVE
Data provided by noaa.gov | Fetched at 07:52:29

METAR : LFPO 061330Z 05011KT CAVOK 09/M04 Q1028 NOSIG

TAF : LFPO 061100Z 0612/0718 06008KT CAVOK


Runway Data for LFPO
Data provided by openaviationdata.com

Runway ID Mag Var Hdg Length Elevation Surface ILS Freq ILS Id ILS Slope
2 -1 19° 7874 ft 291 ft Concrete 110.3 OLN 3
6 -1 62° 11975 ft 291 ft Concrete 108.5 ORE 3
8 -1 75° 10892 ft 291 ft Concrete 108.15 0
24 -1 242° 11975 ft 291 ft Concrete 110.9 OLO 3
26 -1 255° 10892 ft 291 ft Concrete 111.75 OLW 3

Paris Orly Airport, France
Use only for reference purposes



Not for navigational purposes.